Time,TemperatureF,DewpointF,PressureIn,WindDirection,WindDirectionDegrees,WindSpeedMPH,WindSpeedGustMPH,Humidity,HourlyPrecipIn,Conditions,Clouds,dailyrainin,SolarRadiationWatts/m^2,SoftwareType,DateUTC
2013-06-25 00:02:00,56.0,21.0,-100.00,West,275,2.0,9.0,25,0.00,,,0.00,0.000000,,2013-06-25 07:02:00,
2013-06-25 00:43:00,51.0,21.0,-100.00,WNW,291,3.0,6.0,31,0.00,,,0.00,0.000000,,2013-06-25 07:43:00,
2013-06-25 00:52:00,51.0,21.0,-100.00,WNW,291,3.0,6.0,31,0.00,,,0.00,0.000000,,2013-06-25 07:52:00,
2013-06-25 01:01:00,51.0,21.0,-100.00,WNW,291,3.0,6.0,31,0.00,,,0.00,0.000000,,2013-06-25 08:01:00,
2013-06-25 01:43:00,49.0,22.0,-100.00,WNW,299,3.0,5.0,34,0.00,,,0.00,0.000000,,2013-06-25 08:43:00,
2013-06-25 01:53:00,49.0,22.0,-100.00,WNW,299,3.0,5.0,34,0.00,,,0.00,0.000000,,2013-06-25 08:53:00,
2013-06-25 02:01:00,49.0,22.0,-100.00,WNW,299,3.0,5.0,34,0.00,,,0.00,0.000000,,2013-06-25 09:01:00,
2013-06-25 02:43:00,46.0,21.0,-100.00,NW,316,2.0,5.0,37,0.00,,,0.00,0.000000,,2013-06-25 09:43:00,
2013-06-25 02:53:00,46.0,21.0,-100.00,NW,316,2.0,5.0,37,0.00,,,0.00,0.000000,,2013-06-25 09:53:00,
2013-06-25 03:01:00,46.0,21.0,-100.00,NW,316,2.0,5.0,37,0.00,,,0.00,0.000000,,2013-06-25 10:01:00,
2013-06-25 03:33:00,50.0,25.0,-100.00,WNW,283,4.0,7.0,38,0.00,,,0.00,0.000000,,2013-06-25 10:33:00,
2013-06-25 03:43:00,50.0,25.0,-100.00,WNW,283,4.0,7.0,38,0.00,,,0.00,0.000000,,2013-06-25 10:43:00,
2013-06-25 03:52:00,50.0,25.0,-100.00,WNW,283,4.0,7.0,38,0.00,,,0.00,0.000000,,2013-06-25 10:52:00,
2013-06-25 04:01:00,50.0,25.0,-100.00,WNW,283,4.0,7.0,38,0.00,,,0.00,0.000000,,2013-06-25 11:01:00,
2013-06-25 04:34:00,50.0,27.0,-100.00,WNW,282,3.0,8.0,40,0.00,,,0.00,0.000000,,2013-06-25 11:34:00,
2013-06-25 04:43:00,50.0,27.0,-100.00,WNW,282,3.0,8.0,40,0.00,,,0.00,0.000000,,2013-06-25 11:43:00,
2013-06-25 04:52:00,50.0,27.0,-100.00,WNW,282,3.0,8.0,40,0.00,,,0.00,0.000000,,2013-06-25 11:52:00,
2013-06-25 05:01:00,50.0,27.0,-100.00,WNW,282,3.0,8.0,40,0.00,,,0.00,0.000000,,2013-06-25 12:01:00,
2013-06-25 05:43:00,51.0,24.0,-100.00,West,272,2.0,6.0,34,0.00,,,0.00,0.000000,,2013-06-25 12:43:00,
2013-06-25 05:55:00,51.0,24.0,-100.00,West,272,2.0,6.0,34,0.00,,,0.00,0.000000,,2013-06-25 12:55:00,
2013-06-25 06:01:00,51.0,24.0,-100.00,West,272,2.0,6.0,34,0.00,,,0.00,0.000000,,2013-06-25 13:01:00,
2013-06-25 06:42:00,51.0,28.0,-100.00,East,90,1.0,5.0,41,0.00,,,0.00,12.000000,,2013-06-25 13:42:00,
2013-06-25 06:53:00,51.0,28.0,-100.00,East,90,1.0,5.0,41,0.00,,,0.00,12.000000,,2013-06-25 13:53:00,
2013-06-25 07:01:00,51.0,28.0,-100.00,East,90,1.0,5.0,41,0.00,,,0.00,12.000000,,2013-06-25 14:01:00,
2013-06-25 07:43:00,64.0,34.0,-100.00,West,265,3.0,5.0,33,-99.99,,,0.00,47.000000,,2013-06-25 14:43:00,
2013-06-25 07:53:00,64.0,34.0,-100.00,West,265,3.0,5.0,33,-99.99,,,0.00,47.000000,,2013-06-25 14:53:00,
2013-06-25 08:01:00,64.0,34.0,-100.00,West,265,3.0,5.0,33,-99.99,,,0.00,47.000000,,2013-06-25 15:01:00,
2013-06-25 08:44:00,66.0,30.0,-100.00,SSW,200,7.0,12.0,26,0.00,,,0.00,451.000000,,2013-06-25 15:44:00,
2013-06-25 08:53:00,66.0,30.0,-100.00,SSW,200,7.0,12.0,26,0.00,,,0.00,451.000000,,2013-06-25 15:53:00,
2013-06-25 09:03:00,66.0,30.0,-100.00,SSW,200,7.0,12.0,26,0.00,,,0.00,451.000000,,2013-06-25 16:03:00,
2013-06-25 09:35:00,69.0,30.0,-100.00,SSW,211,11.0,17.0,23,0.00,,,0.00,639.000000,,2013-06-25 16:35:00,
2013-06-25 09:44:00,69.0,30.0,-100.00,SSW,211,11.0,17.0,23,0.00,,,0.00,639.000000,,2013-06-25 16:44:00,
2013-06-25 09:52:00,69.0,30.0,-100.00,SSW,211,11.0,17.0,23,0.00,,,0.00,639.000000,,2013-06-25 16:52:00,
2013-06-25 10:01:00,69.0,30.0,-100.00,SSW,211,11.0,17.0,23,0.00,,,0.00,639.000000,,2013-06-25 17:01:00,
2013-06-25 10:44:00,72.0,31.0,-100.00,SSW,208,9.0,17.0,22,0.00,,,0.00,798.000000,,2013-06-25 17:44:00,
2013-06-25 10:53:00,72.0,31.0,-100.00,SSW,208,9.0,17.0,22,0.00,,,0.00,798.000000,,2013-06-25 17:53:00,
2013-06-25 11:02:00,72.0,31.0,-100.00,SSW,208,9.0,17.0,22,0.00,,,0.00,798.000000,,2013-06-25 18:02:00,
2013-06-25 11:34:00,75.0,29.0,-100.00,SW,222,9.0,17.0,18,0.00,,,0.00,913.000000,,2013-06-25 18:34:00,
2013-06-25 11:44:00,75.0,29.0,-100.00,SW,222,9.0,17.0,18,0.00,,,0.00,913.000000,,2013-06-25 18:44:00,
2013-06-25 11:53:00,75.0,29.0,-100.00,SW,222,9.0,17.0,18,0.00,,,0.00,913.000000,,2013-06-25 18:53:00,
2013-06-25 12:01:00,75.0,29.0,-100.00,SW,222,9.0,17.0,18,0.00,,,0.00,913.000000,,2013-06-25 19:01:00,
2013-06-25 12:44:00,77.0,29.0,-100.00,WSW,243,8.0,19.0,17,0.00,,,0.00,976.000000,,2013-06-25 19:44:00,
2013-06-25 12:54:00,77.0,29.0,-100.00,WSW,243,8.0,19.0,17,0.00,,,0.00,976.000000,,2013-06-25 19:54:00,
2013-06-25 13:01:00,77.0,29.0,-100.00,WSW,243,8.0,19.0,17,0.00,,,0.00,976.000000,,2013-06-25 20:01:00,
2013-06-25 13:33:00,79.0,29.0,-100.00,SW,234,10.0,19.0,16,0.00,,,0.00,990.000000,,2013-06-25 20:33:00,
2013-06-25 13:42:00,79.0,29.0,-100.00,SW,234,10.0,19.0,16,0.00,,,0.00,990.000000,,2013-06-25 20:42:00,
2013-06-25 13:52:00,79.0,29.0,-100.00,SW,234,10.0,19.0,16,0.00,,,0.00,990.000000,,2013-06-25 20:52:00,
2013-06-25 14:01:00,79.0,29.0,-100.00,SW,234,10.0,19.0,16,0.00,,,0.00,990.000000,,2013-06-25 21:01:00,
2013-06-25 14:43:00,80.0,30.0,-100.00,SSW,197,10.0,17.0,16,0.00,,,0.00,954.000000,,2013-06-25 21:43:00,
2013-06-25 14:53:00,80.0,30.0,-100.00,SSW,197,10.0,17.0,16,0.00,,,0.00,954.000000,,2013-06-25 21:53:00,
2013-06-25 15:01:00,80.0,30.0,-100.00,SSW,197,10.0,17.0,16,0.00,,,0.00,954.000000,,2013-06-25 22:01:00,
2013-06-25 15:34:00,82.0,31.0,-100.00,SW,225,7.0,20.0,16,0.00,,,0.00,866.000000,,2013-06-25 22:34:00,
2013-06-25 15:42:00,82.0,31.0,-100.00,SW,225,7.0,20.0,16,0.00,,,0.00,866.000000,,2013-06-25 22:42:00,
2013-06-25 15:52:00,82.0,31.0,-100.00,SW,225,7.0,20.0,16,0.00,,,0.00,866.000000,,2013-06-25 22:52:00,
2013-06-25 16:01:00,82.0,31.0,-100.00,SW,225,7.0,20.0,16,0.00,,,0.00,866.000000,,2013-06-25 23:01:00,
2013-06-25 16:34:00,80.0,28.0,-100.00,SSW,199,9.0,20.0,15,0.00,,,0.00,728.000000,,2013-06-25 23:34:00,
2013-06-25 16:44:00,80.0,28.0,-100.00,SSW,199,9.0,20.0,15,0.00,,,0.00,728.000000,,2013-06-25 23:44:00,
2013-06-25 16:52:00,80.0,28.0,-100.00,SSW,199,9.0,20.0,15,0.00,,,0.00,728.000000,,2013-06-25 23:52:00,
2013-06-25 17:01:00,80.0,28.0,-100.00,SSW,199,9.0,20.0,15,0.00,,,0.00,728.000000,,2013-06-26 00:01:00,
2013-06-25 18:33:00,79.0,27.0,-100.00,SSW,202,10.0,17.0,15,0.00,,,0.00,355.000000,,2013-06-26 01:33:00,
2013-06-25 18:43:00,79.0,27.0,-100.00,SSW,202,10.0,17.0,15,0.00,,,0.00,355.000000,,2013-06-26 01:43:00,
2013-06-25 18:53:00,79.0,27.0,-100.00,SSW,202,10.0,17.0,15,0.00,,,0.00,355.000000,,2013-06-26 01:53:00,
2013-06-25 19:01:00,79.0,27.0,-100.00,SSW,202,10.0,17.0,15,0.00,,,0.00,355.000000,,2013-06-26 02:01:00,
2013-06-25 19:34:00,76.0,25.0,-100.00,SSW,212,10.0,15.0,15,0.00,,,0.00,164.000000,,2013-06-26 02:34:00,
2013-06-25 19:43:00,76.0,25.0,-100.00,SSW,212,10.0,15.0,15,0.00,,,0.00,164.000000,,2013-06-26 02:43:00,
2013-06-25 19:53:00,76.0,25.0,-100.00,SSW,212,10.0,15.0,15,0.00,,,0.00,164.000000,,2013-06-26 02:53:00,
2013-06-25 20:01:00,76.0,25.0,-100.00,SSW,212,10.0,15.0,15,0.00,,,0.00,164.000000,,2013-06-26 03:01:00,
2013-06-25 20:33:00,70.0,25.0,-100.00,SW,230,5.0,12.0,18,0.00,,,0.00,9.000000,,2013-06-26 03:33:00,
2013-06-25 20:43:00,70.0,25.0,-100.00,SW,230,5.0,12.0,18,0.00,,,0.00,9.000000,,2013-06-26 03:43:00,
2013-06-25 20:52:00,70.0,25.0,-100.00,SW,230,5.0,12.0,18,0.00,,,0.00,9.000000,,2013-06-26 03:52:00,
2013-06-25 21:01:00,70.0,25.0,-100.00,SW,230,5.0,12.0,18,0.00,,,0.00,9.000000,,2013-06-26 04:01:00,
2013-06-25 21:33:00,66.0,25.0,-100.00,WSW,255,3.0,8.0,21,0.00,,,0.00,0.000000,,2013-06-26 04:33:00,
2013-06-25 21:43:00,66.0,25.0,-100.00,WSW,255,3.0,8.0,21,0.00,,,0.00,0.000000,,2013-06-26 04:43:00,
2013-06-25 21:53:00,66.0,25.0,-100.00,WSW,255,3.0,8.0,21,0.00,,,0.00,0.000000,,2013-06-26 04:53:00,
2013-06-25 22:02:00,66.0,25.0,-100.00,WSW,255,3.0,8.0,21,0.00,,,0.00,0.000000,,2013-06-26 05:02:00,
2013-06-25 22:34:00,59.0,24.0,-100.00,SW,236,2.0,6.0,26,0.00,,,0.00,0.000000,,2013-06-26 05:34:00,
2013-06-25 22:43:00,59.0,24.0,-100.00,SW,236,2.0,6.0,26,0.00,,,0.00,0.000000,,2013-06-26 05:43:00,
2013-06-25 22:52:00,59.0,24.0,-100.00,SW,236,2.0,6.0,26,0.00,,,0.00,0.000000,,2013-06-26 05:52:00,
2013-06-25 23:01:00,59.0,24.0,-100.00,SW,236,2.0,6.0,26,0.00,,,0.00,0.000000,,2013-06-26 06:01:00,
2013-06-25 23:34:00,54.0,24.0,-100.00,WNW,297,2.0,4.0,31,0.00,,,0.00,0.000000,,2013-06-26 06:34:00,
2013-06-25 23:44:00,54.0,24.0,-100.00,WNW,297,2.0,4.0,31,0.00,,,0.00,0.000000,,2013-06-26 06:44:00,
2013-06-25 23:53:00,54.0,24.0,-100.00,WNW,297,2.0,4.0,31,0.00,,,0.00,0.000000,,2013-06-26 06:53:00,